Terminal Aerodrome Forecast
Issued by NWS Dallas/Fort Worth, TX

Home | Current Version | Previous Version | Text Only | Print | Product List | Glossary On
Versions: 1 2 3 4 5 6 7 8 9 10 11 12 13 14 15 16 17 18 19 20 21 22 23 24 25
769
FTUS44 KFWD 241738
TAFACT
TAF
KACT 241738Z 2418/2518 19012KT P6SM SCT250
     FM250900 18006KT P6SM SCT250
     FM251700 02008KT P6SM SCT250=

USA.gov is the U.S. government's official web portal to all federal, state and local government web resources and services.